Location: Igri�s
(42.2144°N, 0.4320°W)
Time: 16:39:22
(UTC+00:00)

Lacrosse 4 Rocket - Pass Details

Date: 13 August 2020
Orbit: 544 x 615 km, 68.0° (Epoch: 18 September)

Event Time Altitude Azimuth Distance (km) Brightness Sun altitude
Exits shadow 23:06:10 25° 352° (N) 1,172 3.5 -31.8°
Drops below altitude 10° 23:08:18 10° 13° (NNE) 1,872 4.7 -31.9°
Sets 23:10:39 0° 22° (NNE) 2,761 5.6 -32.1°
